Printer-friendly version
Follow the MPC on Twitter Follow the MPC on Facebook The MPC blog
Minor Planet Center

MPEC 2008-T110: 2008 TS10

The following Minor Planet Electronic Circular may be linked-to from your own Web pages, but must not otherwise be redistributed electronically.

A form allowing access to any MPEC is at the bottom of this page.


Read MPEC 2008-T109 Read MPEC 2008-T111


M.P.E.C. 2008-T110                               Issued 2008 Oct.  9, 16:47 UT

     The Minor Planet Electronic Circulars contain information on unusual
         minor planets and routine data on comets.  They are published
   on behalf of Commission 20 of the International Astronomical Union by the
          Minor Planet Center, Smithsonian Astrophysical Observatory,
                          Cambridge, MA 02138, U.S.A.

             Prepared using the Tamkin Foundation Computer Network

                              MPC@CFA.HARVARD.EDU
          URL http://www.cfa.harvard.edu/iau/mpc.html  ISSN 1523-6714

                                   2008 TS10

Observations:
     K08T10S* C2008 10 08.36174 01 08 51.72 +20 53 09.0          22.6 V ET110G96
     K08T10S  C2008 10 08.36685 01 08 54.45 +20 53 34.1          20.8 V ET110G96
     K08T10S  C2008 10 08.37185 01 08 57.15 +20 53 57.4          21.4 V ET110G96
     K08T10S  C2008 10 08.37683 01 08 59.85 +20 54 21.0          21.9 V ET110G96
     K08T10S  C2008 10 08.40088 01 09 12.88 +20 56 12.0          19.6 V ET110G96
     K08T10S  C2008 10 08.40400 01 09 14.72 +20 56 26.5          20.6 V ET110G96
     K08T10S  C2008 10 08.40721 01 09 16.48 +20 56 41.4          20.0 V ET110G96
     K08T10S  C2008 10 08.41035 01 09 18.28 +20 56 55.8          21.5 V ET110G96
     K08T10S  C2008 10 09.38086 01 19 39.39 +22 09 57.6          21.4 V ET110G96
     K08T10S  C2008 10 09.38587 01 19 41.70 +22 10 16.4          22.5 V ET110G96
     K08T10S  C2008 10 09.39081 01 19 43.96 +22 10 35.0          21.2 V ET110G96
     K08T10S  C2008 10 09.39572 01 19 46.23 +22 10 52.6          21.3 V ET110G96
     K08T10S  C2008 10 09.46536 01 20 18.91 +22 14 40.0          20.5 R ET110H01
     K08T10S  C2008 10 09.46679 01 20 19.64 +22 14 44.7          20.8 R ET110H01
     K08T10S  C2008 10 09.47079 01 20 21.68 +22 14 58.0          21.3 R ET110H01

Observer details:
G96 Mt. Lemmon Survey.  Observer A. Boattini.  Measurers E. C. Beshore,
    A. Boattini, G. J. Garradd, A. R. Gibbs, A. D. Grauer, R. E. Hill,
    R. A. Kowalski, S. M. Larson, R. H. McNaught.  1.5-m reflector + CCD.
H01 Magdalena Ridge Observatory, Socorro.  Observer W. H. Ryan.  2.4-m f/8.9
    reflector + CCD.

Orbital elements:
2008 TS10                                                Earth MOID = 0.0029 AU
Epoch 2008 Nov. 30.0 TT = JDT 2454800.5                 MPC
M  52.86266              (2000.0)            P               Q
n   0.69755072     Peri.  345.25675     +0.98730610     +0.15880908
a   1.2591733      Node     5.60729     -0.14299136     +0.89564240
e   0.2030807      Incl.    1.47588     -0.06913848     +0.41545682
P   1.41           H   28.8           G   0.15           U   8
Residuals in seconds of arc
081008 G96  0.3+  0.7-    081008 G96  0.2+  0.1+    081009 G96  0.1+  0.2+
081008 G96  0.1+  0.1+    081008 G96  0.1-  0.5+    081009 G96  0.4+  0.1-
081008 G96  0.1+  0.3-    081008 G96  0.7+  0.7+    081009 H01  0.1-  0.1+
081008 G96  0.2+  0.1-    081009 G96  0.4-  0.3-    081009 H01  0.0   0.1+
081008 G96  1.5-  0.2-    081009 G96  0.0   0.1-    081009 H01  0.0   0.1+

Ephemeris:
2008 TS10                a,e,i = 1.26, 0.20, 1                   q = 1.0035
Date    TT    R. A. (2000) Decl.     Delta      r     Elong.  Phase     V
2008 10 01    22 26.26   -04 42.2    0.0109   1.010   148.2    31.5    20.3
2008 10 03    23 30.03   +06 14.8    0.0124   1.012   163.2    16.6    20.2
2008 10 05    00 17.53   +13 52.1    0.0150   1.015   168.8    11.1    20.4
2008 10 07    00 51.52   +18 41.4    0.0182   1.017   166.8    12.9    20.9
2008 10 09    01 15.97   +21 44.5    0.0218   1.020   164.0    15.7    21.4
2008 10 11    01 33.93   +23 44.0    0.0256   1.023   162.0    17.5    21.8

Sonia Keys                   (C) Copyright 2008 MPC           M.P.E.C. 2008-T110

Read MPEC 2008-T109 Read MPEC 2008-T111


MPEC number:

Enter an MPEC number in one of the following forms:

  • 1997-B01 (the full form)
  • J97B01 (the packed version of the full form)
  • B01 (the abbreviated form)

Valid HTML 4.01!